Santa Marta, Colombia

4:12 PM -05 on March 28, 2017 (GMT -0500)
Simon Bolivar

Weather History for SKSM - November, 2012

Change the Weather History Date:

Thursday, November 29, 2012

  Actual Average Record
Temperature  
Mean Temperature 84 °F -  
Max Temperature 93 °F 90 °F 93 °F (1997)
Min Temperature 75 °F 71 °F 74 °F (2013)
Cooling Degree Days 19    
Growing Degree Days 34 (Base 50)    
Moisture  
Dew Point 74 °F    
Average Humidity 67    
Maximum Humidity 89    
Minimum Humidity 47    
Precipitation  
Precipitation 0.00 in 0.01 in - ()
Sea Level Pressure  
Sea Level Pressure 29.82 in    
Wind  
Wind Speed 4 mph ()    
Max Wind Speed 14 mph    
Max Gust Speed -    
Visibility 6.1 miles    
Events      
Averages and records for this station are not official NWS values.
T = Trace of Precipitation, MM = Missing Value Source: Averaged Metar Reports

Daily Weather History Graph

Daily Weather History Graph

Search for Another Location

Airport or City:

Trip Planner

Search our weather history database for the weather conditions in past years. The results will help you decide how hot, cold, wet, or windy it might be!

Date:

Astronomy

Nov. 29, 2012 Rise Set
Actual Time 5:59 AM -05 5:31 PM -05
Civil Twilight 5:36 AM -05 5:53 PM -05
Nautical Twilight 5:10 AM -05 6:20 PM -05
Astronomical Twilight 4:44 AM -05 6:46 PM -05
Moon 6:32 PM -05 (11/29) 6:43 AM -05 (11/29)
Length of Visible Light 12h 16m
Length of Day
11h 31m
Full, 99% of the Moon is Illuminated
Nov 29
Full
Dec 6
Last Quarter
Dec 13
New
Dec 20
First Quarter
Dec 28
Full

Hourly Weather History & Observations

Time (-05) Temp. Heat Index Dew Point Humidity Pressure Visibility Wind Dir Wind Speed Gust Speed Precip Events Conditions
6:00 AM 75.2 °F - 69.8 °F 83% 29.83 in 6.2 mi Calm Calm - N/A   Scattered Clouds
7:00 AM 77 °F - 71 °F 76% 29.79 in 6 mi Calm Calm - -   Haze
7:00 AM 75.2 °F - 71.6 °F 89% 29.83 in 6.2 mi Calm Calm - N/A   Scattered Clouds
8:00 AM 82.4 °F 88.2 °F 73.4 °F 74% 29.86 in 6.2 mi Calm Calm - N/A   Scattered Clouds
9:00 AM 84.2 °F 92.3 °F 75.2 °F 74% 29.86 in 6.2 mi Calm Calm - N/A   Scattered Clouds
10:00 AM 86 °F - 76 °F 66% 29.86 in 6 mi SW 6.7 mph - -   Haze
10:00 AM 86.0 °F 96.9 °F 77.0 °F 74% 29.86 in 6.2 mi WSW 4.6 mph - N/A   Scattered Clouds
11:00 AM 86.0 °F 96.9 °F 77.0 °F 74% 29.86 in 6.2 mi SW 4.6 mph - N/A   Partly Cloudy
12:00 PM 87.8 °F 97.6 °F 75.2 °F 66% 29.83 in 6.2 mi SW 4.6 mph - N/A   Partly Cloudy
1:00 PM 91 °F - 76 °F 52% 29.83 in 6 mi West 4.5 mph - -   Haze
1:00 PM 91.4 °F 102.5 °F 75.2 °F 59% 29.83 in 6.2 mi West 4.6 mph - N/A   Partly Cloudy
2:00 PM 91.4 °F 102.5 °F 75.2 °F 59% 29.80 in 6.2 mi West 4.6 mph - N/A   Partly Cloudy
3:00 PM 93.2 °F 105.0 °F 75.2 °F 56% 29.77 in 6.2 mi NW 6.9 mph - N/A   Partly Cloudy
4:00 PM 91 °F - 73 °F 47% 29.78 in 6 mi NNE 11.2 mph - -   Haze
4:00 PM 89.6 °F 98.2 °F 73.4 °F 59% 29.77 in 6.2 mi NNE 11.5 mph - N/A   Partly Cloudy
5:00 PM 87.8 °F 95.6 °F 73.4 °F 62% 29.77 in 6.2 mi NNE 11.5 mph - N/A   Partly Cloudy
6:00 PM 84.2 °F 90.9 °F 73.4 °F 70% 29.77 in 6.2 mi NNE 9.2 mph - N/A   Partly Cloudy
7:00 PM 83 °F - 73 °F 64% 29.80 in 6 mi NNE 11.2 mph - -   Haze
7:00 PM 82.4 °F 88.2 °F 73.4 °F 74% 29.80 in 6.2 mi NNE 11.5 mph - N/A   Partly Cloudy
8:00 PM 82.4 °F 87.2 °F 71.6 °F 70% 29.83 in 6.2 mi NNE 13.8 mph - N/A   Partly Cloudy
9:00 PM 82.4 °F 87.2 °F 71.6 °F 70% 29.83 in 6.2 mi NNE 11.5 mph - N/A   Partly Cloudy
10:00 PM 82 °F - 71 °F 62% 29.84 in 6 mi NNE 6.7 mph - -   Haze
10:00 PM 84.2 °F 88.4 °F 69.8 °F 62% 29.86 in 6.2 mi NNE 6.9 mph - N/A   Scattered Clouds